Regional Weather Roundup
Issued by NWS

Home | Current Version | Previous Version | Text Only | Print | Product List | Glossary Off
Versions: 1 2 3 4 5 6 7 8 9 10 11 12 13 14 15 16 17 18 19 20 21 22 23 24 25 26 27 28 29 30 31 32 33 34 35 36 37 38 39 40 41 42 43 44 45 46 47 48 49 50

000
ASUS43 KLOT 231406
RWRIL

ILLINOIS REGIONAL WEATHER ROUNDUP
NATIONAL WEATHER SERVICE CHICAGO/ROMEOVILLE IL
900 AM CDT THU OCT 23 2014

NOTE: "FAIR" INDICATES FEW OR NO CLOUDS BELOW 12,000 FEET WITH NO
SIGNIFICANT WEATHER AND/OR OBSTRUCTIONS TO VISIBILITY.

* THESE STATIONS ARE NOT UNDER NWS QUALITY CONTROL. THEY ALSO MAY NOT
  REPORT WEATHER SUCH AS PRECIPITATION OR FOG.

ILZ001-002-007-009-015-016-024-231500-
NORTHWEST ILLINOIS

CITY           SKY/WX    TMP DP  RH WIND       PRES   REMARKS
MOLINE         CLOUDY    48  40  73 S10       30.13F
STERLING*      PTSUNNY   45  37  76 SE7       30.18S
SAVANNA*       PTSUNNY   45  38  78 S7        30.15F
$$

ILZ003-004-008-010-011-017-018-231500-
NORTH CENTRAL ILLINOIS

CITY           SKY/WX    TMP DP  RH WIND       PRES   REMARKS
ROCKFORD       CLOUDY    44  38  79 S9        30.21R
FREEPORT*      PTSUNNY   41  38  87 SE9       30.17F
ROCHELLE*      MOSUNNY   42  39  89 S6        30.20S
DE KALB*       SUNNY     38  37  92 S8        30.20F FOG     WCI  33
PERU*          MOSUNNY   44  38  78 S7        30.21S
$$

ILZ005-006-012>014-019>023-231500-
NORTHEAST ILLINOIS

CITY           SKY/WX    TMP DP  RH WIND       PRES   REMARKS
CHICAGO-OHARE  PTSUNNY   43  39  86 S7        30.22R
CHICAGO-MIDWAY PTSUNNY   45  40  82 S7        30.23R
AURORA         SUNNY     41  38  89 SE3       30.22S FOG
LANSING*       MOSUNNY   41  41  97 SW3       30.24S FOG
JOLIET*        SUNNY     42  39  88 S3        30.23S FOG
WAUKEGAN       SUNNY     43  39  86 SW5       30.21S
DUPAGE AIRPORT SUNNY     42  38  85 S6        30.21S
KANKAKEE*      MOSUNNY   43  40  89 S5        30.25R
WHEELING       SUNNY     44  39  82 S3        30.24R
MORRIS*        SUNNY     40  40  98 SE3       30.22S FOG
ROMEOVILLE*    SUNNY     44  42  91 S7        30.23S FOG
NORTHERLY ISL    N/A     46  39  76 SW3         N/A
$$

LMZ740>746-231500-
SOUTHERN LAKE MICHIGAN

STATION/POSITION SKY/WX   TEMP    WIND        PRES    VSBY  WAVE
                          AIR SEA DIR/SP/G                  HT/PER
                          (F)     (DEG/KT/KT) (MB)    (MI)  (FT/S)
SOUTHERN BUOY              51 54  200/ 12/ 14 1023.6R         2/ 4
WAUKEGAN HARBOR            44     220/  8/ 11   N/A
HARRISON CRIB              45     180/ 13/ 14   N/A
BURNHAM HARBOR             46     190/  3/  9   N/A
CALUMET HARBOR             44     190/  8/  9 1022.4S
MICHIGAN CITY              42     140/ 10/ 12   N/A
$$

ILZ025>027-034>036-040-047-049-050-058-095>099-231500-
WEST-CENTRAL ILLINOIS

CITY           SKY/WX    TMP DP  RH WIND       PRES   REMARKS
QUINCY         CLOUDY    50  41  71 S12       30.14F
GALESBURG*     CLOUDY    47  41  78 S10       30.16S
MACOMB*        CLOUDY    45  42  89 S6        30.19R
JACKSONVILLE*  CLOUDY    50  42  74 S7        30.19S
PITTSFIELD*    CLOUDY    47  42  84 SE5       30.18F
$$

ILZ028>032-037-038-041>044-048-051>054-059>061-231500-
CENTRAL ILLINOIS

CITY           SKY/WX    TMP DP  RH WIND       PRES   REMARKS
PONTIAC        SUNNY     41  39  91 SE5       30.23S
BLOOMINGTON    LGT RAIN  47  43  86 S12       30.23R
DECATUR        SUNNY     47  42  83 S6        30.24R
PEORIA         PTSUNNY   47  40  76 S9        30.20S
LACON*         MOSUNNY   45  39  78 S6        30.19S
LINCOLN*       MOSUNNY   46  42  87 S5        30.22S
SPRINGFIELD    PTSUNNY   49  42  77 S9        30.22R
TAYLORVILLE    PTSUNNY   43  41  93 S5        30.23R
$$

ILZ033-039-045-046-055>057-062-063-231500-
EAST-CENTRAL ILLINOIS

CITY           SKY/WX    TMP DP  RH WIND       PRES   REMARKS
CHAMPAIGN      SUNNY     45  41  86 S8        30.24R
DANVILLE*      MOSUNNY   42  41  93 S6        30.22S FOG
RANTOUL*       SUNNY     44  41  89 S7        30.24S FOG
MATTOON        SUNNY     45  42  89 S8        30.24R
PARIS*         SUNNY     44  44 100 S5        30.26S FOG
$$

ILZ079-100>102-231500-
SOUTHWEST ILLINOIS

CITY           SKY/WX    TMP DP  RH WIND       PRES   REMARKS
ALTON          PTSUNNY   46  43  87 S5        30.22S
BELLEVILLE     SUNNY     43  42  99 SE1       30.22S
CAHOKIA*       PTSUNNY   47  44  90 SE3       30.22R
SPARTA*        PTSUNNY   44  41  91 CALM      30.24R
$$

ILZ064>066-069>071-074>076-080>082-084>086-088>090-092>094-231500-
SOUTH-CENTRAL ILLINOIS

CITY           SKY/WX    TMP DP  RH WIND       PRES   REMARKS
CARBONDALE     MOSUNNY  N/A N/A N/A CALM      30.25R
CAIRO*         SUNNY     49  47  93 CALM      30.25R
EFFINGHAM*     SUNNY     46  41  84 S3        30.25R
MARION         MOSUNNY   48  43  81 SE6       30.26R
MT. VERNON     SUNNY     45  39  81 SW3       30.26R
CENTRALIA*     MOSUNNY   49  43  80 S8        30.24R
SALEM*         MOSUNNY   48  45  88 SE5       30.24R
METROPOLIS*    SUNNY     47  47  99 CALM      30.24R
$$

ILZ067-068-072-073-078-083-087-091-231500-
SOUTHEAST ILLINOIS

CITY           SKY/WX    TMP DP  RH WIND       PRES   REMARKS
LAWRENCEVILLE  SUNNY     46  43  89 E3        30.26S FOG
FLORA*         SUNNY     45  43  95 CALM      30.26R
FAIRFIELD*     MOSUNNY   47  43  87 CALM      30.25R
HARRISBURG*    SUNNY     44  44 100 CALM      30.26R FOG
ROBINSON*      FOG       44  44 100 CALM      30.27S VSB 1
CARMI*         FOG       46  46 100 CALM      30.25R VSB 1/2
$$

ABBREVIATIONS USED IN REMARKS
   TC - TEMPERATURE IN CELSIUS
  WCI - WIND CHILL INDEX
   HX - HEAT INDEX
  VSB - VISIBILITY
$$




USA.gov is the U.S. government's official web portal to all federal, state and local government web resources and services.